Regional Weather Roundup
Issued by NWS

Home | Current Version | Previous Version | Graphics & Text | Print | Product List | Glossary On
Versions: 1 2 3 4 5 6 7 8 9 10 11 12 13 14 15 16 17 18 19 20 21 22 23 24 25 26 27 28 29 30 31 32 33 34 35 36 37 38 39 40 41 42 43 44 45 46 47 48 49 50
000
ASUS43 KDMX 182201
RWRIA

WEATHER ROUNDUP FOR IOWA
NATIONAL WEATHER SERVICE DES MOINES IA
500 PM CDT FRI AUG 18 2017

NOTE: "FAIR" INDICATES FEW OR NO CLOUDS BELOW 12,000 FEET WITH NO
SIGNIFICANT WEATHER AND/OR OBSTRUCTIONS TO VISIBILITY.

* - THESE STATIONS ARE NOT NWS STATIONS...THUS NOT UNDER NWS
QUALITY CONTROL.  THEY ALSO DO NOT REPORT WEATHER SUCH
AS PRECIPITATION OR FOG.

IAZ001>003-012>014-020>022-031>034-043>046-182300-
   NORTHWEST IOWA

CITY           SKY/WX    TMP DP  RH WIND       PRES   REMARKS
CARROLL *      SUNNY     81  63  54 CALM      29.89S HX  82
CHEROKEE *     SUNNY     80  63  55 SE3       29.89S HX  81
DENISON *      SUNNY     81  66  61 SW6       29.90F HX  83
LE MARS *      SUNNY     81  64  57 CALM      29.88S HX  82
ORANGE CITY *  SUNNY     79  66  65 SW7       29.90S HX  81
SHELDON *      MOSUNNY   77  64  65 S7        29.88S
SIOUX CITY     CLOUDY    81  67  62 S3        29.88F HX  83
SPENCER        SUNNY     78  59  51 SW5       29.90S
STORM LAKE *   MOSUNNY   77  64  65 SE5       29.91S
$$

IAZ055>058-069>071-079>083-090>094-182300-
   SOUTHWEST IOWA

CITY           SKY/WX    TMP DP  RH WIND       PRES   REMARKS
ATLANTIC *     SUNNY     82  64  54 W6        29.89S HX  84
AUDUBON *      SUNNY     82  64  54 CALM      29.91S HX  84
CLARINDA *     CLOUDY    84  64  51 N7G13     29.92R HX  86
COUNCIL BLFS * SUNNY     84  66  54 NW8       29.89F HX  86
CRESTON *      SUNNY     84  61  45 W8        29.91S HX  84
HARLAN  *      SUNNY     82  66  57 VRB6      29.92F HX  85
LAMONI         CLOUDY    81  67  62 W6        29.89F HX  83
RED OAK *      SUNNY     84  66  54 SW3       29.90S HX  86
SHENANDOAH *   SUNNY     84  66  54 W5        29.90S HX  86
$$

IAZ047>049-059>061-072>074-084-182300-
   CENTRAL IOWA

CITY           SKY/WX    TMP DP  RH WIND       PRES   REMARKS
AMES           MOSUNNY   81  67  62 N5        29.88S HX  83
ANKENY *       MOSUNNY   84  66  54 N7G13     29.88S HX  86
BOONE *        SUNNY     81  63  54 E5        29.88S HX  82
CHARITON *     MOSUNNY   84  61  45 W5        29.87S HX  84
DES MOINES     MOSUNNY   89  61  38 NW8       29.86S HX  89
GRINNELL*      MOSUNNY   79  68  67 NE5       29.89F HX  81
KNOXVILLE *    SUNNY     88  59  37 W9        29.85S HX  87
MARSHALLTOWN   SUNNY     79  64  60 NE5       29.89S HX  81
NEWTON *       MOSUNNY   81  68  65 NE6       29.88S HX  83
PELLA *        SUNNY     87  59  37 NW3       29.87S HX  87
PERRY *          N/A     83  60  45 N3        29.88S HX  83
$$

IAZ004>006-015-016-023>025-035-036-182300-
   NORTH CENTRAL IOWA

CITY           SKY/WX    TMP DP  RH WIND       PRES   REMARKS
ALGONA *       SUNNY     77  61  57 N5        29.91S
CLARION *      SUNNY     77  61  57 CALM      29.90F
ESTHERVILLE    PTSUNNY   76  63  64 E6        29.89F
FORT DODGE *   SUNNY     79  63  57 NW3       29.91S HX  80
MASON CITY     SUNNY     72  61  68 NE9       29.93S
FOREST CITY *  PTSUNNY   75  64  69 NE9       29.92S
WEBSTER CITY * SUNNY     79  63  57 CALM      29.88S HX  80
IOWA FALLS *   PTSUNNY   78  60  54 CALM      29.91F
$$

IAZ007>011-017>019-026>030-037>042-050>054-066-182300-
   NORTHEAST IOWA

CITY           SKY/WX    TMP DP  RH WIND       PRES   REMARKS
CEDAR RAPIDS   SUNNY     80  61  52 NW6       29.88F HX  81
CHARLES CITY * SUNNY     72  61  68 N8        29.93S
CLINTON *      MOSUNNY   77  65  66 NW8       29.89S
DECORAH *      CLOUDY    68  61  77 VRB5      29.92S
DUBUQUE        MOSUNNY   74  60  61 N10       29.90S
MONTICELLO *   MOSUNNY   79  61  53 W7        29.89S HX  80
OELWEIN *      CLOUDY    73  63  68 N8        29.92S
WATERLOO       SUNNY     77  59  53 N6        29.89S
$$

IAZ064-065-067-068-078-182300-
   EAST CENTRAL IOWA

CITY           SKY/WX    TMP DP  RH WIND       PRES   REMARKS
DAVENPORT      PTSUNNY   78  64  61 NW8       29.90S HX  80
IOWA CITY      MOSUNNY   83  65  54 W6        29.89S HX  85
MUSCATINE *    CLOUDY    82  66  57 N5        29.87S HX  85
QUAD CITIES    PTSUNNY   83  64  52 W8        29.87S HX  84
$$

IAZ062-063-075>077-085>089-095>099-182300-
   SOUTHEAST IOWA

CITY           SKY/WX    TMP DP  RH WIND       PRES   REMARKS
BURLINGTON     SUNNY     83  69  62 S5        29.86F HX  86
FAIRFIELD *    SUNNY     88  61  40 NW12      29.85S HX  88
FORT MADISON * SUNNY     84  70  61 CALM      29.87F HX  88
KEOKUK *       MOSUNNY   88  63  42 SW13      29.84F HX  88
OSKALOOSA *      N/A     85  65  51 N5        29.86S HX  86
OTTUMWA        SUNNY     88  59  37 W8        29.85S HX  87
WASHINGTON *   SUNNY     84  68  58 NW5G12    29.87F HX  87
$$

ABBREVIATIONS USED IN REMARKS
   TC - TEMPERATURES IN CELSIUS
  WCI - WIND CHILL INDEX
   HX - HEAT INDEX
  VSB - VISIBILITY
$$





USA.gov is the U.S. government's official web portal to all federal, state and local government web resources and services.